QB50P2

Last updated on Sun Apr 12 2026 00:03:55 GMT+0000 (Coordinated Universal Time)

1 40032U 14033Y 26101.44515772 .00006212 00000+0 34296-3 0 9992 2 40032 98.0756 94.2229 0008904 52.7378 307.4662 15.14301247642566
UTC large
Height (km)
Speed (km/s)
/
Latitude / Longitude
Inclination (degrees)
Orbital Period (minutes)
Azimuth
Elevation
Range (km)
Doppler Factor

Next 0 passes for location: London (51.5072 / 0.1276)

Sorry there are no passes over London.
QB50P2